FW3577 Weather Reports


time (UTC)temp
F
wind
direction
speed
knots
gust
knots
rain 1hr
in
rain 24hr
in
rain mn
in
humidity
%
barometer
mb
20260906203001 80 134 0.0 0.0 0.00 0.00 0.00 72 1014.8
20260906202500 80 123 0.0 0.0 0.00 0.00 0.00 73 1014.8
20260906201001 81 232 0.0 0.0 0.00 0.00 0.00 72 1014.7
20260906200501 80 229 0.0 0.0 0.00 0.00 0.00 73 1015.0
20260906200004 80 173 0.0 0.0 0.00 0.00 0.00 74 1014.9
20260906195501 80 167 0.0 0.0 0.00 0.00 0.00 75 1015.1
20260906195001 80 150 0.0 0.0 0.00 0.00 0.00 75 1015.2
20260906194001 80 195 0.0 0.0 0.00 0.00 0.00 75 1015.5
20260906193500 80 194 0.0 0.0 0.00 0.00 0.00 75 1015.5
20260906193001 79 154 0.0 0.0 0.00 0.00 0.00 76 1015.7
20260906192500 79 239 0.0 0.0 0.00 0.00 0.00 77 1015.7
20260906192001 79 146 0.0 0.0 0.00 0.00 0.00 77 1015.6
20260906191500 78 140 0.0 0.0 0.00 0.00 0.00 78 1015.5
20260906191001 78 301 0.0 0.0 0.00 0.00 0.00 78 1015.5
20260906190500 78 301 0.0 0.0 0.00 0.00 0.00 77 1015.5
20260906190004 77 268 0.0 0.0 0.00 0.00 0.00 78 1015.4
20260906185500 77 268 0.0 0.0 0.00 0.00 0.00 80 1015.3
20260906185001 77 283 0.0 0.0 0.00 0.00 0.00 79 1015.6
20260906184500 76 295 0.0 0.0 0.00 0.00 0.00 79 1015.6
20260906184001 76 269 0.0 0.0 0.00 0.00 0.00 81 1015.4
20260906183500 76 295 0.0 0.0 0.00 0.00 0.00 80 1015.3
20260906183001 76 264 0.0 0.0 0.00 0.00 0.00 81 1015.3
20260906182500 75 257 0.0 0.0 0.00 0.00 0.00 81 1015.3
20260906181500 75 288 0.0 0.0 0.00 0.00 0.00 82 1015.0
20260906181001 75 274 0.0 0.0 0.00 0.00 0.00 83 1015.1
20260906180500 75 297 0.0 0.0 0.00 0.00 0.00 83 1015.2
20260906180006 75 307 0.0 0.0 0.00 0.00 0.00 84 1015.2
20260906175500 76 304 0.0 0.0 0.00 0.00 0.00 84 1015.0
20260906175001 76 283 0.0 0.0 0.00 0.00 0.00 85 1014.8
20260906174500 76 300 0.0 0.0 0.00 0.00 0.00 84 1015.0
20260906174001 76 293 0.0 0.0 0.00 0.00 0.00 84 1014.9
20260906173500 76 254 0.0 0.0 0.00 0.00 0.00 84 1015.0
20260906173002 76 266 0.0 0.0 0.00 0.00 0.00 85 1014.9
20260906172500 76 262 0.0 0.0 0.00 0.00 0.00 86 1014.9
20260906172002 76 264 0.0 0.0 0.00 0.00 0.00 86 1015.0
20260906171500 76 266 0.0 0.0 0.00 0.00 0.00 87 1015.0
20260906171001 76 259 0.0 0.0 0.00 0.00 0.00 89 1015.4
20260906170500 76 134 0.0 0.0 0.00 0.00 0.00 91 1015.6
20260906165500 76 221 0.0 0.0 0.00 0.00 0.00 94 1015.6
20260906165001 76 229 0.0 0.0 0.00 0.00 0.00 94 1015.7
20260906164500 77 258 0.0 0.0 0.00 0.00 0.00 94 1015.6
20260906164001 77 230 0.0 0.0 0.00 0.00 0.00 94 1015.8
20260906163500 77 219 0.0 0.0 0.00 0.00 0.00 94 1015.7
20260906163001 77 226 0.0 0.0 0.00 0.00 0.00 95 1015.7
20260906162500 77 239 0.0 0.0 0.00 0.00 0.00 95 1015.9
20260906162001 77 214 0.0 0.0 0.00 0.00 0.00 95 1016.0
20260906161501 77 223 0.0 0.0 0.00 0.00 0.00 95 1016.1
20260906161001 77 207 0.0 0.0 0.00 0.00 0.00 95 1016.1
20260906160500 77 227 0.0 0.0 0.00 0.00 0.00 95 1015.9
20260906160005 77 179 0.0 0.0 0.00 0.00 0.00 95 1015.8
20260906155500 77 215 0.0 0.0 0.00 0.00 0.00 95 1015.7
20260906154500 77 151 0.0 0.0 0.00 0.00 0.00 95 1015.8
20260906154001 77 177 0.0 0.0 0.00 0.00 0.00 95 1015.8
20260906153001 78 194 0.0 0.0 0.00 0.00 0.00 95 1015.5
20260906152500 78 152 0.0 0.0 0.00 0.00 0.00 95 1015.5
20260906151500 78 164 0.0 0.0 0.00 0.00 0.00 95 1015.2
20260906150500 78 161 0.0 0.0 0.00 0.00 0.00 95 1014.9
20260906150002 78 122 0.0 0.0 0.00 0.00 0.00 95 1015.0
20260906145001 77 133 0.0 0.0 0.00 0.00 0.00 95 1014.9
20260906143500 77 115 0.0 0.0 0.00 0.00 0.00 96 1014.9
20260906143001 77 134 0.0 0.0 0.00 0.00 0.00 96 1015.1
20260906142500 77 124 0.0 0.0 0.00 0.00 0.00 96 1015.0
20260906142003 77 117 0.0 0.0 0.00 0.00 0.00 96 1014.9
20260906141500 76 103 0.0 0.0 0.00 0.00 0.00 97 1014.7
20260906141001 76 133 0.0 0.0 0.00 0.00 0.00 98 1014.7
20260906140001 75 131 0.0 0.0 0.00 0.00 0.00 98 1014.6
20260906135500 75 126 0.0 0.0 0.00 0.00 0.00 99 1014.8
20260906135001 74 100 0.0 0.0 0.00 0.00 0.00 99 1014.9
20260906134500 74 104 0.0 0.0 0.00 0.00 0.00 99 1014.8
20260906134001 74 112 0.0 0.0 0.00 0.00 0.00 99 1014.8
20260906133500 73 122 0.0 0.0 0.00 0.00 0.00 99 1014.8
20260906132500 73 122 0.0 0.0 0.00 0.00 0.00 99 1014.6
20260906132001 73 123 0.0 0.0 0.00 0.00 0.00 100 1014.6
20260906131500 73 99 0.0 0.0 0.00 0.00 0.00 100 1014.5
20260906131002 72 91 0.0 0.0 0.00 0.00 0.00 100 1014.4
20260906130500 72 96 0.0 0.0 0.00 0.00 0.00 100 1014.7
20260906130002 72 117 0.0 0.0 0.00 0.00 0.00 100 1014.5
20260906125500 72 117 0.0 0.0 0.00 0.00 0.00 100 1014.3
20260906125000 72 114 0.0 0.0 0.00 0.00 0.00 100 1014.2
20260906124500 72 85 0.0 0.0 0.00 0.00 0.00 100 1014.1
20260906124001 72 105 0.0 0.0 0.00 0.00 0.00 100 1013.9
20260906123500 71 103 0.0 0.0 0.00 0.00 0.00 100 1013.8
20260906123001 71 91 0.0 0.0 0.00 0.00 0.00 99 1013.8
20260906122501 71 103 0.0 0.0 0.00 0.00 0.00 99 1013.7
20260906122001 71 120 0.0 0.0 0.00 0.00 0.00 99 1013.6
20260906121500 71 127 0.0 0.0 0.00 0.00 0.00 99 1013.5
20260906121001 71 127 0.0 0.0 0.00 0.00 0.00 99 1013.4
20260906120500 71 136 0.0 0.0 0.00 0.00 0.00 99 1013.3
20260906120002 71 128 0.0 0.0 0.00 0.00 0.00 99 1013.3
20260906115500 71 131 0.0 0.0 0.00 0.00 0.00 99 1013.3
20260906114500 71 129 0.0 0.0 0.00 0.00 0.00 99 1013.6
20260906114000 72 109 0.0 0.0 0.00 0.00 0.00 99 1013.6
20260906113500 72 130 0.0 0.0 0.00 0.00 0.00 99 1013.5
20260906113001 72 127 0.0 0.0 0.00 0.00 0.00 99 1013.4
20260906112459 72 129 0.0 0.0 0.00 0.00 0.00 99 1013.4
20260906112000 72 127 0.0 0.0 0.00 0.00 0.00 99 1013.5
20260906111500 72 126 0.0 0.0 0.00 0.00 0.00 99 1013.5
20260906111001 71 105 0.0 0.0 0.00 0.00 0.00 99 1013.6
20260906110459 71 122 0.0 0.0 0.00 0.00 0.00 99 1013.6
20260906105500 71 120 0.0 0.0 0.00 0.02 0.00 99 1013.8
20260906105000 71 103 0.0 0.0 0.00 0.02 0.00 99 1013.8
20260906104500 71 124 0.0 0.0 0.00 0.02 0.00 99 1013.7
20260906104001 71 120 0.0 0.0 0.00 0.02 0.00 99 1013.8
20260906103500 71 130 0.0 0.0 0.00 0.02 0.00 98 1013.9
20260906103001 71 125 0.0 0.0 0.00 0.02 0.00 98 1013.9
20260906102500 71 125 0.0 0.0 0.00 0.02 0.00 98 1013.9
20260906102000 71 133 0.0 0.0 0.00 0.02 0.00 98 1013.8
20260906101500 71 124 0.0 0.0 0.00 0.02 0.00 98 1013.8
20260906100500 71 137 0.0 0.0 0.00 0.02 0.00 98 1013.8
20260906095001 71 127 0.0 0.0 0.00 0.03 0.00 98 1013.9
20260906094500 71 118 0.0 0.0 0.00 0.03 0.00 98 1014.1
20260906094000 71 133 0.0 0.0 0.00 0.03 0.00 97 1014.1
20260906093000 71 130 0.0 0.0 0.00 0.03 0.00 97 1014.1
20260906092001 71 100 0.0 0.0 0.00 0.03 0.00 98 1014.2
20260906091500 71 110 0.0 0.0 0.00 0.03 0.00 97 1014.2
20260906091000 71 110 0.0 0.0 0.00 0.03 0.00 97 1014.2
20260906090459 71 110 0.0 0.0 0.00 0.03 0.00 97 1014.3
20260906090001 71 110 0.0 0.0 0.00 0.04 0.00 98 1014.2
20260906085500 71 110 0.0 0.0 0.00 0.04 0.00 98 1014.3
20260906084500 70 123 0.0 0.0 0.00 0.04 0.00 97 1014.1
20260906084000 70 123 0.0 0.0 0.00 0.04 0.00 97 1014.0
20260906083001 70 123 0.0 0.0 0.00 0.04 0.00 97 1013.8
20260906082500 70 124 0.0 0.0 0.00 0.04 0.00 96 1013.8
20260906082000 70 113 0.0 0.0 0.00 0.04 0.00 96 1013.8
20260906081500 70 110 0.0 0.0 0.00 0.04 0.00 96 1013.6
20260906081001 70 125 0.0 0.0 0.00 0.04 0.00 95 1013.6
20260906080500 71 126 0.0 0.0 0.00 0.04 0.00 94 1013.5
20260906080002 71 126 0.0 0.0 0.00 0.04 0.00 94 1013.5
20260906075459 71 126 0.0 0.0 0.00 0.04 0.00 94 1013.4
20260906075000 72 126 0.0 0.0 0.00 0.04 0.00 94 1013.4
20260906074000 72 126 0.0 0.0 0.00 0.04 0.00 93 1013.4
20260906073500 72 127 0.0 0.0 0.00 0.04 0.00 93 1013.4
20260906073001 73 127 0.0 0.0 0.00 0.04 0.00 92 1013.5
20260906072459 73 139 0.0 0.0 0.00 0.04 0.00 93 1013.5
20260906072001 73 127 0.0 0.0 0.00 0.04 0.00 93 1013.4
20260906071000 73 153 0.0 0.0 0.00 0.04 0.00 92 1013.4
20260906070500 73 131 0.0 0.0 0.00 0.04 0.00 92 1013.4
20260906070002 73 128 0.0 0.0 0.00 0.04 0.00 91 1013.4
20260906065500 73 143 0.0 0.0 0.00 0.04 0.00 91 1013.4
20260906065000 73 125 0.0 0.0 0.00 0.04 0.00 91 1013.4
20260906064459 73 158 0.0 0.0 0.00 0.04 0.00 90 1013.5
20260906063500 73 215 0.0 0.0 0.00 0.04 0.00 90 1013.4
20260906063000 74 160 0.0 0.0 0.00 0.04 0.00 90 1013.3
20260906062500 74 151 0.0 0.0 0.00 0.04 0.00 89 1013.5
20260906061459 74 129 0.0 0.0 0.00 0.04 0.00 89 1013.5
20260906060459 75 115 0.0 0.0 0.00 0.04 0.00 88 1013.6
20260906060001 75 161 0.0 0.0 0.00 0.04 0.00 87 1013.6
20260906055500 75 155 0.0 0.0 0.00 0.04 0.00 87 1013.6
20260906055000 75 131 0.0 0.0 0.00 0.04 0.00 86 1013.5
20260906054000 77 146 0.0 0.0 0.00 0.04 0.00 83 1013.4
20260906053500 77 141 0.0 0.0 0.00 0.04 0.00 82 1013.4
20260906053000 78 171 0.0 0.0 0.00 0.04 0.00 82 1013.5
20260906052500 78 153 0.0 0.0 0.00 0.04 0.00 82 1013.4
20260906052000 78 158 0.0 0.0 0.00 0.04 0.00 82 1013.6
20260906051500 78 143 0.0 0.0 0.00 0.04 0.00 82 1013.5
20260906051001 77 158 0.0 0.0 0.00 0.04 0.00 83 1013.5
20260906050500 77 154 0.0 0.0 0.00 0.04 0.00 83 1013.5
20260906050006 77 133 0.0 0.0 0.00 0.04 0.00 83 1013.6
20260906045501 78 161 0.0 0.0 0.00 0.04 0.04 83 1013.6
20260906044501 78 149 0.0 0.0 0.00 0.04 0.04 83 1013.4
20260906043501 78 171 0.0 0.0 0.00 0.04 0.04 83 1013.6
20260906043002 78 138 0.0 0.0 0.00 0.04 0.04 83 1013.7
20260906042002 78 163 0.0 0.0 0.00 0.04 0.04 83 1013.3
20260906041459 78 132 0.0 0.0 0.00 0.04 0.04 83 1012.8
20260906041002 78 155 0.0 0.0 0.00 0.04 0.04 83 1012.9
20260906040501 77 122 0.0 0.0 0.00 0.04 0.04 83 1013.0
20260906040004 77 150 0.0 0.0 0.00 0.04 0.04 84 1012.8
20260906035501 77 145 0.0 0.0 0.00 0.04 0.04 84 1013.0
20260906035002 77 166 0.0 0.0 0.00 0.04 0.04 84 1013.1
20260906034501 77 166 0.0 0.0 0.00 0.04 0.04 84 1013.1
20260906034002 76 170 0.0 0.0 0.00 0.04 0.04 84 1012.8
20260906033502 76 148 0.0 0.0 0.00 0.04 0.04 85 1012.6
20260906033002 76 123 0.0 0.0 0.00 0.04 0.04 84 1012.6
20260906032002 76 88 0.0 0.0 0.00 0.04 0.04 85 1012.5
20260906031501 76 86 0.0 0.0 0.00 0.04 0.04 86 1012.5
20260906030501 76 97 0.0 0.0 0.00 0.04 0.04 87 1012.7
20260906030007 76 85 0.0 0.0 0.00 0.04 0.04 87 1013.0
20260906025501 77 90 0.0 0.0 0.00 0.04 0.04 86 1013.2
20260906025002 77 133 0.0 0.0 0.00 0.04 0.04 85 1013.4
20260906024501 78 143 0.0 0.0 0.00 0.04 0.04 84 1013.5
20260906023501 78 143 0.0 0.0 0.00 0.04 0.04 83 1013.3
20260906023002 78 143 0.0 0.0 0.00 0.04 0.04 83 1013.3
20260906022501 78 143 0.0 0.0 0.00 0.04 0.04 83 1013.3
20260906022002 78 143 0.0 0.0 0.00 0.04 0.04 84 1013.3
20260906021001 77 149 0.0 0.0 0.00 0.04 0.04 86 1013.1
20260906020501 77 133 0.0 0.0 0.00 0.04 0.04 86 1013.4
20260906020004 77 133 0.0 0.0 0.00 0.04 0.04 86 1013.2
20260906015001 77 133 0.0 0.0 0.00 0.04 0.04 86 1013.5
20260906014501 77 133 0.0 0.0 0.00 0.04 0.04 86 1013.5
20260906014001 77 133 0.0 0.0 0.00 0.04 0.04 86 1013.7
20260906013501 77 133 0.0 0.0 0.00 0.04 0.04 85 1013.7
20260906013002 78 133 0.0 0.0 0.00 0.04 0.04 85 1013.8
20260906012501 78 133 0.0 0.0 0.00 0.04 0.04 85 1013.7
20260906012002 78 133 0.0 0.0 0.00 0.04 0.04 85 1013.6
20260906011501 78 133 0.0 0.0 0.00 0.04 0.04 85 1013.6
20260906011001 78 133 0.0 0.0 0.00 0.04 0.04 84 1013.6
20260906010501 79 133 0.0 0.0 0.00 0.04 0.04 83 1013.6
20260906010006 79 133 0.0 0.0 0.00 0.04 0.04 82 1013.4
20260906005501 79 133 0.0 0.0 0.00 0.04 0.04 82 1013.3
20260906005001 80 133 0.0 0.0 0.00 0.04 0.04 81 1013.4
20260906004501 80 133 0.0 0.0 0.00 0.04 0.04 81 1013.4
20260906004002 81 133 0.0 0.0 0.00 0.04 0.04 79 1013.4
20260906003501 81 134 0.0 0.0 0.00 0.04 0.04 76 1013.5
20260906003002 82 134 0.0 0.0 0.00 0.04 0.04 76 1013.5
20260906002501 82 134 0.0 0.0 0.00 0.04 0.04 76 1013.6
20260906002001 82 134 0.0 0.0 0.00 0.04 0.04 76 1013.5
20260906001501 82 134 0.0 0.0 0.00 0.04 0.04 75 1013.2
20260906001002 83 134 0.0 0.0 0.00 0.04 0.04 75 1013.1
20260906000501 83 134 0.0 0.0 0.00 0.04 0.04 75 1013.2
20260906000008 83 133 0.0 0.0 0.00 0.04 0.04 74 1013.0
20260905235501 84 136 0.0 0.0 0.00 0.04 0.04 73 1013.0
20260905235002 84 127 0.0 0.0 0.00 0.04 0.04 73 1013.1
20260905233501 85 161 0.0 0.0 0.00 0.04 0.04 71 1013.1
20260905233001 86 164 0.0 0.0 0.00 0.04 0.04 70 1013.0
20260905232501 86 146 0.0 0.0 0.00 0.04 0.04 69 1012.8
20260905232002 86 157 0.0 0.0 0.00 0.04 0.04 68 1012.6
20260905231003 88 150 0.0 0.0 0.00 0.04 0.04 65 1012.4
20260905230500 88 159 0.0 0.0 0.00 0.04 0.04 64 1012.2
20260905230004 89 141 0.0 0.0 0.00 0.04 0.04 64 1012.0
20260905225501 89 144 0.0 0.0 0.00 0.04 0.04 64 1011.8
20260905225001 89 121 0.0 0.0 0.00 0.04 0.04 63 1011.7
20260905224002 89 107 0.0 0.0 0.00 0.04 0.04 63 1011.5
20260905223501 90 131 0.0 0.0 0.00 0.04 0.04 63 1011.3
20260905223002 90 129 0.0 0.0 0.00 0.04 0.04 62 1011.5
20260905222501 90 130 0.0 0.0 0.00 0.04 0.04 60 1011.5
20260905222001 90 122 0.0 0.0 0.00 0.04 0.04 61 1011.5
20260905221501 90 124 0.0 0.0 0.00 0.04 0.04 60 1011.5
20260905215501 91 136 0.0 0.0 0.00 0.04 0.04 60 1012.0
20260905215002 91 117 0.0 0.0 0.00 0.04 0.04 60 1012.0
20260905214501 91 132 0.0 0.0 0.00 0.04 0.04 60 1011.8
20260905214002 91 125 0.0 0.0 0.00 0.04 0.04 60 1012.0
20260905213500 91 137 0.0 0.0 0.00 0.04 0.04 58 1012.0
20260905213002 92 110 0.0 0.0 0.00 0.04 0.04 59 1011.8
20260905212501 92 122 0.0 0.0 0.00 0.04 0.04 59 1011.9
20260905212001 92 124 0.0 0.0 0.00 0.04 0.04 60 1012.0
20260905211501 92 156 0.0 0.0 0.00 0.04 0.04 60 1012.0
20260905211001 91 109 0.0 0.0 0.00 0.04 0.04 62 1012.0
20260905210501 91 146 0.0 0.0 0.00 0.04 0.04 59 1012.1
20260905210005 91 110 0.0 0.0 0.00 0.04 0.04 60 1012.3
20260905205500 91 114 0.0 0.0 0.00 0.04 0.04 59 1012.3
20260905205001 91 137 0.0 0.0 0.00 0.04 0.04 59 1012.3
20260905204500 91 134 0.0 0.0 0.00 0.04 0.04 60 1012.3
20260905204002 91 124 0.0 0.0 0.00 0.04 0.04 60 1012.2
20260905203500 91 93 0.0 0.0 0.00 0.04 0.04 61 1012.0